Tabellarische Ansicht des 6.10.2020


Die einzelnen Werte des Tages

Uhrzeit Temperatur Luftdruck Luftfeuchte Wind Hi-Wind Taupunkt THW Index Wind Chill Heat Index Solar- strahlung Regen

00:00

10.7 C

997.7 hpa

88 %

8.0 km/h aus 116

20.9 km/h aus SSE

8.8 C

9.8 C

9.8 C

10.7 C

0 W/m

0.00 mm

00:05

10.7 C

997.7 hpa

88 %

4.8 km/h aus 115

16.1 km/h aus SSE

8.8 C

10.7 C

10.6 C

10.8 C

0 W/m

0.00 mm

00:10

10.7 C

997.7 hpa

88 %

8.0 km/h aus 114

20.9 km/h aus SE

8.8 C

9.9 C

9.9 C

10.8 C

0 W/m

0.00 mm

00:15

10.8 C

997.7 hpa

88 %

8.0 km/h aus 116

17.7 km/h aus SE

8.9 C

10.1 C

10.0 C

10.9 C

0 W/m

0.00 mm

00:20

10.9 C

997.7 hpa

89 %

6.4 km/h aus 117

19.3 km/h aus ESE

9.1 C

10.5 C

10.4 C

11.0 C

0 W/m

0.00 mm

00:25

11.0 C

997.7 hpa

89 %

8.0 km/h aus 117

19.3 km/h aus SSE

9.3 C

10.3 C

10.2 C

11.1 C

0 W/m

0.00 mm

00:30

11.1 C

997.7 hpa

89 %

6.4 km/h aus 117

19.3 km/h aus SE

9.3 C

10.7 C

10.6 C

11.2 C

0 W/m

0.00 mm

00:35

11.1 C

997.7 hpa

89 %

8.0 km/h aus 115

20.9 km/h aus SSE

9.4 C

10.4 C

10.3 C

11.2 C

0 W/m

0.00 mm

00:40

11.2 C

997.7 hpa

88 %

6.4 km/h aus 115

17.7 km/h aus SE

9.3 C

10.8 C

10.7 C

11.2 C

0 W/m

0.00 mm

00:45

11.2 C

997.7 hpa

88 %

6.4 km/h aus 117

17.7 km/h aus SE

9.3 C

10.8 C

10.7 C

11.2 C

0 W/m

0.00 mm

00:50

11.2 C

997.7 hpa

88 %

4.8 km/h aus 117

16.1 km/h aus SE

9.3 C

11.2 C

11.1 C

11.2 C

0 W/m

0.00 mm

00:55

11.1 C

997.7 hpa

88 %

8.0 km/h aus 117

19.3 km/h aus SE

9.2 C

10.4 C

10.3 C

11.2 C

0 W/m

0.00 mm

01:00

11.1 C

997.7 hpa

88 %

3.2 km/h aus 116

17.7 km/h aus SE

9.2 C

11.2 C

11.1 C

11.2 C

0 W/m

0.00 mm

01:05

11.1 C

997.7 hpa

88 %

6.4 km/h aus 114

17.7 km/h aus SSE

9.1 C

10.7 C

10.6 C

11.1 C

0 W/m

0.00 mm

01:10

11.1 C

997.7 hpa

88 %

4.8 km/h aus 117

16.1 km/h aus SE

9.2 C

11.1 C

11.1 C

11.2 C

0 W/m

0.00 mm

01:15

11.1 C

997.6 hpa

88 %

4.8 km/h aus 117

14.5 km/h aus SE

9.1 C

11.1 C

11.0 C

11.1 C

0 W/m

0.00 mm

01:20

11.0 C

997.6 hpa

88 %

6.4 km/h aus 116

17.7 km/h aus SSE

9.1 C

10.6 C

10.6 C

11.1 C

0 W/m

0.00 mm

01:25

10.9 C

997.6 hpa

88 %

8.0 km/h aus 116

22.5 km/h aus SSE

9.0 C

10.2 C

10.1 C

11.0 C

0 W/m

0.00 mm

01:30

10.8 C

997.3 hpa

88 %

4.8 km/h aus 114

17.7 km/h aus SSE

8.9 C

10.8 C

10.8 C

10.9 C

0 W/m

0.00 mm

01:35

10.8 C

997.3 hpa

87 %

9.7 km/h aus 115

19.3 km/h aus SSE

8.7 C

9.7 C

9.6 C

10.8 C

0 W/m

0.00 mm

01:40

10.7 C

997.3 hpa

88 %

11.3 km/h aus 117

20.9 km/h aus SE

8.8 C

9.4 C

9.3 C

10.8 C

0 W/m

0.00 mm

01:45

10.7 C

997.6 hpa

88 %

9.7 km/h aus 115

19.3 km/h aus SSE

8.8 C

9.6 C

9.5 C

10.7 C

0 W/m

0.00 mm

01:50

10.6 C

997.6 hpa

88 %

8.0 km/h aus 118

20.9 km/h aus SSE

8.7 C

9.8 C

9.7 C

10.7 C

0 W/m

0.00 mm

01:55

10.6 C

997.6 hpa

88 %

8.0 km/h aus 115

17.7 km/h aus SSE

8.7 C

9.7 C

9.7 C

10.6 C

0 W/m

0.00 mm

02:00

10.5 C

997.6 hpa

88 %

3.2 km/h aus 113

17.7 km/h aus SSE

8.6 C

10.6 C

10.5 C

10.6 C

0 W/m

0.00 mm

02:05

10.5 C

997.6 hpa

88 %

4.8 km/h aus 117

14.5 km/h aus SE

8.6 C

10.4 C

10.4 C

10.6 C

0 W/m

0.00 mm

02:10

10.4 C

997.6 hpa

88 %

3.2 km/h aus 117

11.3 km/h aus SE

8.5 C

10.5 C

10.4 C

10.5 C

0 W/m

0.00 mm

02:15

10.3 C

997.6 hpa

88 %

3.2 km/h aus 117

9.7 km/h aus SE

8.4 C

10.4 C

10.3 C

10.4 C

0 W/m

0.00 mm

02:20

10.3 C

997.6 hpa

88 %

3.2 km/h aus 116

9.7 km/h aus SE

8.4 C

10.4 C

10.3 C

10.4 C

0 W/m

0.00 mm

02:25

10.2 C

997.6 hpa

88 %

4.8 km/h aus 114

14.5 km/h aus SSE

8.3 C

10.1 C

10.0 C

10.3 C

0 W/m

0.00 mm

02:30

10.1 C

997.4 hpa

88 %

4.8 km/h aus 116

17.7 km/h aus SE

8.2 C

10.1 C

9.9 C

10.2 C

0 W/m

0.00 mm

02:35

10.1 C

997.4 hpa

88 %

8.0 km/h aus 117

19.3 km/h aus SSE

8.2 C

9.2 C

9.1 C

10.2 C

0 W/m

0.00 mm

02:40

10.2 C

997.4 hpa

89 %

8.0 km/h aus 117

20.9 km/h aus SSE

8.4 C

9.3 C

9.2 C

10.3 C

0 W/m

0.00 mm

02:45

10.2 C

997.3 hpa

89 %

9.7 km/h aus 115

20.9 km/h aus SSE

8.4 C

9.1 C

8.9 C

10.3 C

0 W/m

0.00 mm

02:50

10.2 C

997.3 hpa

89 %

14.5 km/h aus 115

22.5 km/h aus S

8.5 C

8.1 C

8.0 C

10.3 C

0 W/m

0.00 mm

02:55

10.3 C

997.3 hpa

89 %

9.7 km/h aus 115

22.5 km/h aus SSE

8.5 C

9.2 C

9.1 C

10.4 C

0 W/m

0.00 mm

03:00

10.3 C

997.1 hpa

89 %

9.7 km/h aus 116

22.5 km/h aus ESE

8.5 C

9.2 C

9.1 C

10.4 C

0 W/m

0.00 mm

03:05

10.3 C

997.1 hpa

89 %

9.7 km/h aus 116

24.1 km/h aus SE

8.6 C

9.2 C

9.1 C

10.4 C

0 W/m

0.00 mm

03:10

10.3 C

997.1 hpa

89 %

9.7 km/h aus 117

19.3 km/h aus SSE

8.5 C

9.2 C

9.1 C

10.4 C

0 W/m

0.00 mm

03:15

10.3 C

997.1 hpa

89 %

9.7 km/h aus 115

20.9 km/h aus SE

8.5 C

9.2 C

9.1 C

10.4 C

0 W/m

0.00 mm

03:20

10.3 C

997.1 hpa

89 %

9.7 km/h aus 113

20.9 km/h aus SSE

8.5 C

9.2 C

9.1 C

10.4 C

0 W/m

0.00 mm

03:25

10.3 C

997.1 hpa

89 %

3.2 km/h aus 117

16.1 km/h aus SSE

8.6 C

10.4 C

10.3 C

10.4 C

0 W/m

0.00 mm

03:30

10.4 C

997.0 hpa

89 %

3.2 km/h aus 116

11.3 km/h aus SE

8.7 C

10.5 C

10.4 C

10.5 C

0 W/m

0.00 mm

03:35

10.4 C

997.0 hpa

89 %

3.2 km/h aus 117

9.7 km/h aus SE

8.7 C

10.6 C

10.4 C

10.6 C

0 W/m

0.00 mm

03:40

10.4 C

997.0 hpa

89 %

4.8 km/h aus 117

11.3 km/h aus SE

8.7 C

10.4 C

10.3 C

10.6 C

0 W/m

0.00 mm

03:45

10.4 C

996.8 hpa

89 %

3.2 km/h aus 114

16.1 km/h aus SE

8.7 C

10.5 C

10.4 C

10.5 C

0 W/m

0.00 mm

03:50

10.4 C

996.8 hpa

89 %

3.2 km/h aus 116

14.5 km/h aus SE

8.7 C

10.5 C

10.4 C

10.5 C

0 W/m

0.00 mm

03:55

10.5 C

996.8 hpa

89 %

3.2 km/h aus 118

11.3 km/h aus SE

8.8 C

10.6 C

10.5 C

10.6 C

0 W/m

0.00 mm

04:00

10.6 C

996.7 hpa

89 %

1.6 km/h aus 116

8.0 km/h aus SE

8.8 C

10.7 C

10.6 C

10.7 C

0 W/m

0.00 mm

04:05

10.6 C

996.7 hpa

89 %

3.2 km/h aus 117

17.7 km/h aus SE

8.9 C

10.7 C

10.6 C

10.7 C

0 W/m

0.00 mm

04:10

10.7 C

996.7 hpa

89 %

6.4 km/h aus 115

17.7 km/h aus SE

9.0 C

10.3 C

10.2 C

10.8 C

0 W/m

0.00 mm

04:15

10.8 C

996.7 hpa

89 %

3.2 km/h aus 114

11.3 km/h aus SE

9.1 C

10.9 C

10.8 C

10.9 C

0 W/m

0.25 mm

04:20

10.8 C

996.7 hpa

89 %

4.8 km/h aus 116

14.5 km/h aus SSE

9.1 C

10.9 C

10.8 C

10.9 C

0 W/m

0.00 mm

04:25

10.9 C

996.7 hpa

90 %

6.4 km/h aus 117

22.5 km/h aus SE

9.4 C

10.6 C

10.4 C

11.1 C

0 W/m

0.00 mm

04:30

10.9 C

996.7 hpa

90 %

4.8 km/h aus 117

16.1 km/h aus SE

9.4 C

11.0 C

10.9 C

11.1 C

0 W/m

0.00 mm

04:35

11.0 C

996.7 hpa

90 %

3.2 km/h aus 116

9.7 km/h aus SE

9.4 C

11.1 C

11.0 C

11.1 C

0 W/m

0.00 mm

04:40

11.0 C

996.7 hpa

90 %

3.2 km/h aus 114

12.9 km/h aus SSE

9.4 C

11.1 C

11.0 C

11.1 C

0 W/m

0.00 mm

04:45

10.9 C

996.6 hpa

90 %

3.2 km/h aus 116

8.0 km/h aus SE

9.4 C

11.1 C

10.9 C

11.1 C

0 W/m

0.00 mm

04:50

11.0 C

996.6 hpa

90 %

3.2 km/h aus 117

14.5 km/h aus SE

9.4 C

11.1 C

11.0 C

11.1 C

0 W/m

0.00 mm

04:55

11.0 C

996.6 hpa

90 %

3.2 km/h aus 117

9.7 km/h aus SE

9.4 C

11.1 C

11.0 C

11.1 C

0 W/m

0.00 mm

05:00

11.0 C

996.4 hpa

90 %

4.8 km/h aus 118

14.5 km/h aus ESE

9.4 C

11.1 C

10.9 C

11.1 C

0 W/m

0.00 mm

05:05

11.0 C

996.4 hpa

91 %

3.2 km/h aus 114

14.5 km/h aus SE

9.6 C

11.1 C

11.0 C

11.1 C

0 W/m

0.00 mm

05:10

11.0 C

996.4 hpa

91 %

3.2 km/h aus 116

14.5 km/h aus SE

9.6 C

11.1 C

11.0 C

11.1 C

0 W/m

0.00 mm

05:15

11.0 C

996.2 hpa

91 %

3.2 km/h aus 117

8.0 km/h aus SE

9.6 C

11.1 C

11.0 C

11.1 C

0 W/m

0.00 mm

05:20

11.0 C

996.2 hpa

91 %

1.6 km/h aus 116

9.7 km/h aus SSE

9.6 C

11.1 C

11.0 C

11.1 C

0 W/m

0.00 mm

05:25

11.0 C

996.2 hpa

91 %

3.2 km/h aus 117

8.0 km/h aus SSE

9.6 C

11.1 C

11.0 C

11.1 C

0 W/m

0.25 mm

05:30

11.1 C

996.2 hpa

91 %

3.2 km/h aus 112

9.7 km/h aus SE

9.6 C

11.2 C

11.1 C

11.2 C

0 W/m

0.00 mm

05:35

11.1 C

996.2 hpa

91 %

4.8 km/h aus 115

17.7 km/h aus SE

9.6 C

11.1 C

11.0 C

11.2 C

0 W/m

0.25 mm

05:40

11.1 C

996.2 hpa

91 %

6.4 km/h aus 117

17.7 km/h aus SSE

9.7 C

10.8 C

10.7 C

11.2 C

0 W/m

0.00 mm

05:45

11.2 C

996.2 hpa

91 %

3.2 km/h aus 116

11.3 km/h aus SSE

9.8 C

11.3 C

11.2 C

11.3 C

0 W/m

0.00 mm

05:50

11.2 C

996.2 hpa

91 %

3.2 km/h aus 117

9.7 km/h aus SSE

9.8 C

11.3 C

11.2 C

11.3 C

0 W/m

0.00 mm

05:55

11.2 C

996.2 hpa

92 %

4.8 km/h aus 116

14.5 km/h aus SSE

10.0 C

11.3 C

11.2 C

11.3 C

0 W/m

0.25 mm

06:00

11.3 C

996.1 hpa

92 %

4.8 km/h aus 113

16.1 km/h aus SSE

10.0 C

11.3 C

11.2 C

11.4 C

0 W/m

0.00 mm

06:05

11.3 C

996.1 hpa

92 %

9.7 km/h aus 118

20.9 km/h aus SSE

10.0 C

10.3 C

10.2 C

11.4 C

0 W/m

0.25 mm

06:10

11.3 C

996.1 hpa

92 %

9.7 km/h aus 117

20.9 km/h aus SSE

10.1 C

10.4 C

10.3 C

11.4 C

0 W/m

0.00 mm

06:15

11.3 C

996.2 hpa

92 %

6.4 km/h aus 117

17.7 km/h aus SSE

10.1 C

11.0 C

10.9 C

11.4 C

0 W/m

0.00 mm

06:20

11.3 C

996.2 hpa

92 %

6.4 km/h aus 116

14.5 km/h aus SSE

10.1 C

11.0 C

10.9 C

11.4 C

0 W/m

0.00 mm

06:25

11.3 C

996.2 hpa

92 %

11.3 km/h aus 113

22.5 km/h aus SSE

10.1 C

10.2 C

10.1 C

11.4 C

0 W/m

0.00 mm

06:30

11.4 C

996.2 hpa

92 %

12.9 km/h aus 115

24.1 km/h aus SSW

10.1 C

9.8 C

9.7 C

11.5 C

0 W/m

0.00 mm

06:35

11.4 C

996.2 hpa

92 %

6.4 km/h aus 116

19.3 km/h aus SSW

10.2 C

11.2 C

11.1 C

11.6 C

0 W/m

0.00 mm

06:40

11.4 C

996.2 hpa

92 %

9.7 km/h aus 117

24.1 km/h aus S

10.2 C

10.5 C

10.4 C

11.6 C

0 W/m

0.00 mm

06:45

11.5 C

996.1 hpa

92 %

9.7 km/h aus 116

20.9 km/h aus SSE

10.2 C

10.6 C

10.4 C

11.6 C

0 W/m

0.00 mm

06:50

11.5 C

996.1 hpa

92 %

11.3 km/h aus 115

22.5 km/h aus SSE

10.2 C

10.3 C

10.2 C

11.6 C

0 W/m

0.00 mm

06:55

11.6 C

996.1 hpa

92 %

9.7 km/h aus 115

22.5 km/h aus SSE

10.3 C

10.7 C

10.6 C

11.7 C

0 W/m

0.00 mm

07:00

11.6 C

996.1 hpa

92 %

11.3 km/h aus 117

22.5 km/h aus S

10.4 C

10.5 C

10.4 C

11.7 C

0 W/m

0.00 mm

07:05

11.7 C

996.1 hpa

92 %

12.9 km/h aus 115

22.5 km/h aus SSE

10.4 C

10.2 C

10.1 C

11.8 C

0 W/m

0.00 mm

07:10

11.7 C

996.1 hpa

93 %

14.5 km/h aus 118

27.4 km/h aus SSW

10.6 C

9.8 C

9.7 C

11.8 C

0 W/m

0.00 mm

07:15

11.8 C

996.2 hpa

93 %

12.9 km/h aus 115

25.7 km/h aus S

10.7 C

10.3 C

10.2 C

11.9 C

0 W/m

0.00 mm

07:20

11.8 C

996.2 hpa

93 %

12.9 km/h aus 115

27.4 km/h aus S

10.7 C

10.3 C

10.2 C

11.9 C

0 W/m

0.00 mm

07:25

11.8 C

996.2 hpa

93 %

9.7 km/h aus 117

19.3 km/h aus S

10.7 C

10.9 C

10.8 C

11.9 C

0 W/m

0.00 mm

07:30

11.8 C

996.2 hpa

93 %

12.9 km/h aus 117

25.7 km/h aus SE

10.7 C

10.4 C

10.3 C

11.9 C

0 W/m

0.00 mm

07:35

11.8 C

996.2 hpa

93 %

9.7 km/h aus 116

24.1 km/h aus SSE

10.7 C

11.0 C

10.9 C

11.9 C

0 W/m

0.00 mm

07:40

11.9 C

996.2 hpa

93 %

11.3 km/h aus 116

25.7 km/h aus S

10.8 C

10.8 C

10.7 C

12.0 C

0 W/m

0.00 mm

07:45

11.9 C

996.2 hpa

93 %

9.7 km/h aus 114

24.1 km/h aus S

10.8 C

11.1 C

11.0 C

12.1 C

0 W/m

0.00 mm

07:50

11.9 C

996.2 hpa

93 %

9.7 km/h aus 117

24.1 km/h aus S

10.8 C

11.1 C

10.9 C

12.0 C

0 W/m

0.00 mm

07:55

11.9 C

996.2 hpa

93 %

8.0 km/h aus 117

19.3 km/h aus S

10.8 C

11.4 C

11.3 C

12.1 C

3 W/m

0.00 mm

08:00

11.9 C

996.3 hpa

93 %

11.3 km/h aus 117

22.5 km/h aus S

10.8 C

10.9 C

10.8 C

12.1 C

6 W/m

0.00 mm

08:05

11.9 C

996.3 hpa

93 %

11.3 km/h aus 115

24.1 km/h aus SSE

10.8 C

10.9 C

10.8 C

12.1 C

6 W/m

0.00 mm

08:10

12.0 C

996.3 hpa

93 %

12.9 km/h aus 114

32.2 km/h aus S

10.9 C

10.6 C

10.4 C

12.1 C

12 W/m

0.00 mm

08:15

12.1 C

996.5 hpa

93 %

12.9 km/h aus 116

29.0 km/h aus S

11.0 C

10.6 C

10.5 C

12.2 C

8 W/m

0.00 mm

08:20

12.1 C

996.5 hpa

93 %

14.5 km/h aus 115

29.0 km/h aus S

11.0 C

10.3 C

10.2 C

12.2 C

5 W/m

0.00 mm

08:25

12.1 C

996.5 hpa

93 %

14.5 km/h aus 117

35.4 km/h aus SSW

11.0 C

10.3 C

10.2 C

12.2 C

17 W/m

0.00 mm

08:30

12.2 C

996.6 hpa

93 %

11.3 km/h aus 117

35.4 km/h aus SSW

11.1 C

11.2 C

11.1 C

12.3 C

18 W/m

0.00 mm

08:35

12.2 C

996.6 hpa

93 %

14.5 km/h aus 114

32.2 km/h aus SSW

11.1 C

10.4 C

10.3 C

12.3 C

25 W/m

0.00 mm

08:40

12.2 C

996.6 hpa

92 %

16.1 km/h aus 114

33.8 km/h aus S

10.9 C

10.0 C

9.9 C

12.2 C

24 W/m

0.00 mm

08:45

12.2 C

996.7 hpa

92 %

11.3 km/h aus 117

25.7 km/h aus SSW

10.9 C

11.1 C

11.1 C

12.2 C

28 W/m

0.00 mm

08:50

12.2 C

996.7 hpa

92 %

16.1 km/h aus 115

32.2 km/h aus SSW

11.0 C

10.1 C

10.0 C

12.3 C

24 W/m

0.00 mm

08:55

12.2 C

996.7 hpa

91 %

17.7 km/h aus 116

29.0 km/h aus SW

10.8 C

9.7 C

9.7 C

12.3 C

42 W/m

0.00 mm

09:00

12.3 C

996.9 hpa

91 %

9.7 km/h aus 110

24.1 km/h aus SSW

10.9 C

11.4 C

11.4 C

12.3 C

57 W/m

0.00 mm

09:05

12.3 C

996.9 hpa

91 %

12.9 km/h aus 114

30.6 km/h aus SW

10.9 C

10.9 C

10.8 C

12.4 C

78 W/m

0.00 mm

09:10

12.4 C

996.9 hpa

90 %

9.7 km/h aus 117

25.7 km/h aus SW

10.8 C

11.6 C

11.6 C

12.4 C

88 W/m

0.00 mm

09:15

12.4 C

997.1 hpa

90 %

14.5 km/h aus 114

27.4 km/h aus SSW

10.8 C

10.7 C

10.6 C

12.5 C

65 W/m

0.00 mm

09:20

12.4 C

997.1 hpa

89 %

12.9 km/h aus 113

30.6 km/h aus SSW

10.7 C

11.1 C

11.0 C

12.5 C

73 W/m

0.00 mm

09:25

12.5 C

997.1 hpa

89 %

11.3 km/h aus 113

22.5 km/h aus SSW

10.7 C

11.5 C

11.4 C

12.6 C

69 W/m

0.00 mm

09:30

12.6 C

997.2 hpa

89 %

11.3 km/h aus 113

29.0 km/h aus SSW

10.8 C

11.6 C

11.5 C

12.6 C

85 W/m

0.00 mm

09:35

12.7 C

997.2 hpa

88 %

8.0 km/h aus 109

24.1 km/h aus SSW

10.7 C

12.2 C

12.2 C

12.7 C

98 W/m

0.00 mm

09:40

12.8 C

997.2 hpa

87 %

12.9 km/h aus 108

30.6 km/h aus SW

10.7 C

11.4 C

11.4 C

12.8 C

103 W/m

0.00 mm

09:45

12.9 C

997.2 hpa

86 %

14.5 km/h aus 109

27.4 km/h aus S

10.6 C

11.1 C

11.1 C

12.8 C

68 W/m

0.00 mm

09:50

12.8 C

997.2 hpa

86 %

20.9 km/h aus 106

43.5 km/h aus SSW

10.5 C

9.8 C

9.8 C

12.8 C

74 W/m

0.00 mm

09:55

12.9 C

997.2 hpa

86 %

12.9 km/h aus 111

25.7 km/h aus SW

10.6 C

11.4 C

11.5 C

12.8 C

71 W/m

0.00 mm

10:00

12.9 C

997.2 hpa

86 %

14.5 km/h aus 113

30.6 km/h aus S

10.6 C

11.1 C

11.1 C

12.8 C

62 W/m

0.00 mm

10:05

12.9 C

997.2 hpa

85 %

17.7 km/h aus 107

35.4 km/h aus SSW

10.4 C

10.4 C

10.4 C

12.8 C

83 W/m

0.00 mm

10:10

13.1 C

997.2 hpa

85 %

14.5 km/h aus 111

27.4 km/h aus SSW

10.6 C

11.3 C

11.3 C

13.0 C

143 W/m

0.00 mm

10:15

13.4 C

997.2 hpa

85 %

8.0 km/h aus 113

19.3 km/h aus W

10.9 C

12.9 C

13.0 C

13.3 C

182 W/m

0.00 mm

10:20

13.3 C

997.2 hpa

83 %

19.3 km/h aus 105

38.6 km/h aus S

10.5 C

10.6 C

10.7 C

13.2 C

167 W/m

0.00 mm

10:25

13.3 C

997.2 hpa

83 %

17.7 km/h aus 111

40.2 km/h aus SSE

10.5 C

10.8 C

10.9 C

13.2 C

207 W/m

0.00 mm

10:30

13.4 C

997.1 hpa

83 %

14.5 km/h aus 105

33.8 km/h aus SW

10.6 C

11.7 C

11.8 C

13.3 C

135 W/m

0.00 mm

10:35

13.3 C

997.1 hpa

82 %

17.7 km/h aus 103

29.0 km/h aus SSW

10.3 C

10.8 C

10.9 C

13.2 C

96 W/m

0.00 mm

10:40

13.3 C

997.1 hpa

83 %

14.5 km/h aus 102

33.8 km/h aus S

10.5 C

11.5 C

11.6 C

13.2 C

94 W/m

0.00 mm

10:45

13.2 C

997.2 hpa

83 %

20.9 km/h aus 102

32.2 km/h aus S

10.3 C

10.1 C

10.2 C

13.1 C

100 W/m

0.00 mm

10:50

13.2 C

997.2 hpa

83 %

16.1 km/h aus 111

32.2 km/h aus S

10.3 C

10.9 C

11.1 C

13.1 C

111 W/m

0.00 mm

10:55

13.2 C

997.2 hpa

83 %

16.1 km/h aus 113

27.4 km/h aus S

10.3 C

10.9 C

11.1 C

13.1 C

146 W/m

0.00 mm

11:00

13.3 C

997.2 hpa

84 %

16.1 km/h aus 113

30.6 km/h aus SSW

10.6 C

11.2 C

11.2 C

13.2 C

164 W/m

0.00 mm

11:05

13.2 C

997.2 hpa

82 %

19.3 km/h aus 105

38.6 km/h aus SSW

10.2 C

10.4 C

10.6 C

13.1 C

162 W/m

0.00 mm

11:10

13.4 C

997.2 hpa

82 %

16.1 km/h aus 105

33.8 km/h aus SSE

10.4 C

11.2 C

11.3 C

13.3 C

226 W/m

0.00 mm

11:15

13.6 C

997.0 hpa

81 %

9.7 km/h aus 106

20.9 km/h aus SW

10.4 C

12.8 C

13.0 C

13.4 C

203 W/m

0.00 mm

11:20

13.8 C

997.0 hpa

80 %

12.9 km/h aus 113

24.1 km/h aus SW

10.4 C

12.4 C

12.6 C

13.6 C

231 W/m

0.00 mm

11:25

13.8 C

997.0 hpa

80 %

12.9 km/h aus 104

29.0 km/h aus SSE

10.4 C

12.5 C

12.7 C

13.7 C

243 W/m

0.00 mm

11:30

14.2 C

996.9 hpa

80 %

11.3 km/h aus 102

22.5 km/h aus SSW

10.8 C

13.4 C

13.5 C

14.1 C

274 W/m

0.00 mm

11:35

14.3 C

996.9 hpa

80 %

14.5 km/h aus 110

24.1 km/h aus SSE

10.9 C

12.7 C

12.8 C

14.2 C

156 W/m

0.00 mm

11:40

14.1 C

996.9 hpa

79 %

20.9 km/h aus 105

35.4 km/h aus SE

10.5 C

11.1 C

11.3 C

13.9 C

101 W/m

0.00 mm

11:45

13.9 C

996.8 hpa

78 %

19.3 km/h aus 106

32.2 km/h aus SSE

10.1 C

11.1 C

11.3 C

13.7 C

87 W/m

0.00 mm

11:50

13.9 C

996.8 hpa

78 %

19.3 km/h aus 108

29.0 km/h aus S

10.1 C

11.1 C

11.3 C

13.7 C

144 W/m

0.00 mm

11:55

14.0 C

996.8 hpa

77 %

16.1 km/h aus 104

25.7 km/h aus SSE

10.0 C

11.8 C

12.1 C

13.8 C

147 W/m

0.00 mm

12:00

14.2 C

996.7 hpa

76 %

16.1 km/h aus 102

30.6 km/h aus S

10.0 C

12.1 C

12.3 C

13.9 C

189 W/m

0.00 mm

12:05

14.9 C

996.7 hpa

76 %

17.7 km/h aus 106

30.6 km/h aus S

10.7 C

12.6 C

12.8 C

14.7 C

530 W/m

0.00 mm

12:10

15.3 C

996.7 hpa

75 %

17.7 km/h aus 111

30.6 km/h aus SSE

10.9 C

12.9 C

13.2 C

15.0 C

405 W/m

0.00 mm

12:15

15.1 C

996.6 hpa

74 %

19.3 km/h aus 103

29.0 km/h aus S

10.5 C

12.3 C

12.6 C

14.8 C

241 W/m

0.00 mm

12:20

14.9 C

996.6 hpa

74 %

17.7 km/h aus 110

32.2 km/h aus SSE

10.3 C

12.5 C

12.8 C

14.6 C

209 W/m

0.00 mm

12:25

14.8 C

996.6 hpa

74 %

17.7 km/h aus 103

35.4 km/h aus S

10.2 C

12.3 C

12.6 C

14.5 C

210 W/m

0.00 mm

12:30

14.7 C

996.6 hpa

74 %

17.7 km/h aus 111

29.0 km/h aus S

10.1 C

12.2 C

12.5 C

14.3 C

191 W/m

0.00 mm

12:35

14.7 C

996.6 hpa

74 %

17.7 km/h aus 100

32.2 km/h aus SSE

10.1 C

12.2 C

12.5 C

14.3 C

225 W/m

0.00 mm

12:40

14.9 C

996.6 hpa

73 %

14.5 km/h aus 104

29.0 km/h aus SSE

10.1 C

13.2 C

13.6 C

14.6 C

245 W/m

0.00 mm

12:45

14.9 C

996.4 hpa

71 %

17.7 km/h aus 108

25.7 km/h aus S

9.7 C

12.4 C

12.8 C

14.6 C

270 W/m

0.00 mm

12:50

14.8 C

996.4 hpa

71 %

17.7 km/h aus 113

33.8 km/h aus SW

9.6 C

12.3 C

12.7 C

14.4 C

193 W/m

0.00 mm

12:55

14.8 C

996.4 hpa

73 %

17.7 km/h aus 111

25.7 km/h aus SSE

10.0 C

12.3 C

12.7 C

14.5 C

143 W/m

0.00 mm

13:00

14.9 C

996.2 hpa

73 %

17.7 km/h aus 113

32.2 km/h aus S

10.1 C

12.4 C

12.8 C

14.6 C

118 W/m

0.00 mm

13:05

14.8 C

996.2 hpa

73 %

16.1 km/h aus 103

29.0 km/h aus S

10.0 C

12.7 C

13.0 C

14.5 C

110 W/m

0.00 mm

13:10

14.8 C

996.2 hpa

73 %

17.7 km/h aus 107

37.0 km/h aus S

10.0 C

12.3 C

12.6 C

14.4 C

80 W/m

0.00 mm

13:15

14.7 C

996.2 hpa

73 %

19.3 km/h aus 102

30.6 km/h aus SE

9.9 C

11.9 C

12.3 C

14.4 C

102 W/m

0.00 mm

13:20

14.4 C

996.2 hpa

76 %

24.1 km/h aus 107

37.0 km/h aus SSE

10.3 C

11.1 C

11.3 C

14.2 C

163 W/m

0.00 mm

13:25

14.3 C

996.2 hpa

77 %

24.1 km/h aus 98

35.4 km/h aus SSE

10.4 C

10.9 C

11.2 C

14.1 C

280 W/m

0.00 mm

13:30

14.5 C

996.2 hpa

76 %

22.5 km/h aus 106

37.0 km/h aus S

10.3 C

11.3 C

11.5 C

14.3 C

448 W/m

0.00 mm

13:35

14.9 C

996.2 hpa

76 %

19.3 km/h aus 112

32.2 km/h aus SSW

10.7 C

12.2 C

12.4 C

14.7 C

432 W/m

0.25 mm

13:40

14.8 C

996.2 hpa

76 %

22.5 km/h aus 112

38.6 km/h aus SSE

10.6 C

11.7 C

11.9 C

14.6 C

264 W/m

0.00 mm

13:45

14.6 C

996.1 hpa

77 %

17.7 km/h aus 113

33.8 km/h aus SSE

10.6 C

12.2 C

12.4 C

14.4 C

181 W/m

0.00 mm

13:50

14.4 C

996.1 hpa

77 %

19.3 km/h aus 106

35.4 km/h aus S

10.5 C

11.7 C

11.9 C

14.2 C

203 W/m

0.00 mm

13:55

14.4 C

996.1 hpa

78 %

20.9 km/h aus 103

33.8 km/h aus SE

10.7 C

11.5 C

11.7 C

14.3 C

193 W/m

0.00 mm

14:00

14.5 C

996.1 hpa

79 %

19.3 km/h aus 111

29.0 km/h aus SSE

10.9 C

11.8 C

12.0 C

14.3 C

244 W/m

0.00 mm

14:05

14.4 C

996.1 hpa

79 %

24.1 km/h aus 107

43.5 km/h aus SSE

10.8 C

11.1 C

11.2 C

14.2 C

230 W/m

0.00 mm

14:10

14.2 C

996.1 hpa

81 %

19.3 km/h aus 108

30.6 km/h aus SSW

11.0 C

11.6 C

11.7 C

14.1 C

207 W/m

0.00 mm

14:15

14.3 C

996.0 hpa

81 %

16.1 km/h aus 108

27.4 km/h aus S

11.1 C

12.3 C

12.4 C

14.2 C

118 W/m

0.00 mm

14:20

14.3 C

996.0 hpa

82 %

14.5 km/h aus 112

30.6 km/h aus SE

11.2 C

12.6 C

12.7 C

14.2 C

105 W/m

0.00 mm

14:25

14.2 C

996.0 hpa

82 %

14.5 km/h aus 116

22.5 km/h aus SSE

11.1 C

12.5 C

12.6 C

14.1 C

89 W/m

0.00 mm

14:30

14.0 C

995.9 hpa

83 %

17.7 km/h aus 114

25.7 km/h aus SE

11.2 C

11.6 C

11.7 C

13.9 C

84 W/m

0.00 mm

14:35

13.7 C

995.9 hpa

84 %

14.5 km/h aus 112

22.5 km/h aus SSE

11.1 C

12.1 C

12.1 C

13.7 C

136 W/m

0.00 mm

14:40

13.6 C

995.9 hpa

86 %

11.3 km/h aus 115

20.9 km/h aus SSE

11.3 C

12.7 C

12.7 C

13.5 C

228 W/m

0.00 mm

14:45

13.6 C

995.7 hpa

86 %

12.9 km/h aus 109

22.5 km/h aus SE

11.3 C

12.3 C

12.4 C

13.6 C

227 W/m

0.00 mm

14:50

13.8 C

995.7 hpa

86 %

14.5 km/h aus 108

24.1 km/h aus SE

11.5 C

12.1 C

12.2 C

13.7 C

292 W/m

0.00 mm

14:55

14.2 C

995.7 hpa

86 %

11.3 km/h aus 101

22.5 km/h aus SSE

11.9 C

13.4 C

13.4 C

14.1 C

227 W/m

0.00 mm

15:00

14.3 C

995.5 hpa

85 %

12.9 km/h aus 109

27.4 km/h aus SSE

11.8 C

13.1 C

13.2 C

14.2 C

170 W/m

0.00 mm

15:05

14.3 C

995.5 hpa

84 %

12.9 km/h aus 107

27.4 km/h aus SSE

11.7 C

13.2 C

13.3 C

14.3 C

237 W/m

0.00 mm

15:10

14.3 C

995.5 hpa

84 %

14.5 km/h aus 110

27.4 km/h aus SSE

11.7 C

12.8 C

12.8 C

14.3 C

248 W/m

0.00 mm

15:15

14.5 C

995.2 hpa

84 %

14.5 km/h aus 111

24.1 km/h aus ESE

11.8 C

12.9 C

13.0 C

14.4 C

258 W/m

0.00 mm

15:20

14.7 C

995.2 hpa

84 %

16.1 km/h aus 94

27.4 km/h aus SE

12.0 C

12.8 C

12.8 C

14.6 C

239 W/m

0.00 mm

15:25

14.7 C

995.2 hpa

82 %

16.1 km/h aus 93

25.7 km/h aus SE

11.6 C

12.8 C

12.8 C

14.6 C

236 W/m

0.00 mm

15:30

14.6 C

995.1 hpa

83 %

16.1 km/h aus 98

27.4 km/h aus SE

11.7 C

12.6 C

12.7 C

14.5 C

228 W/m

0.00 mm

15:35

14.6 C

995.1 hpa

83 %

14.5 km/h aus 103

24.1 km/h aus SSE

11.7 C

13.0 C

13.1 C

14.5 C

246 W/m

0.00 mm

15:40

14.6 C

995.1 hpa

83 %

17.7 km/h aus 111

29.0 km/h aus SE

11.7 C

12.3 C

12.3 C

14.5 C

217 W/m

0.00 mm

15:45

14.6 C

995.0 hpa

83 %

17.7 km/h aus 106

27.4 km/h aus SSE

11.8 C

12.4 C

12.4 C

14.6 C

116 W/m

0.00 mm

15:50

14.7 C

995.0 hpa

84 %

16.1 km/h aus 104

25.7 km/h aus SE

12.0 C

12.8 C

12.8 C

14.6 C

235 W/m

0.00 mm

15:55

14.8 C

995.0 hpa

84 %

12.9 km/h aus 103

22.5 km/h aus SSE

12.1 C

13.7 C

13.8 C

14.7 C

229 W/m

0.00 mm

16:00

14.7 C

995.0 hpa

83 %

14.5 km/h aus 105

30.6 km/h aus SE

11.8 C

13.2 C

13.2 C

14.6 C

148 W/m

0.00 mm

16:05

14.6 C

995.0 hpa

83 %

16.1 km/h aus 102

29.0 km/h aus SSE

11.7 C

12.6 C

12.7 C

14.5 C

70 W/m

0.00 mm

16:10

14.5 C

995.0 hpa

83 %

11.3 km/h aus 97

20.9 km/h aus SE

11.6 C

13.8 C

13.8 C

14.4 C

185 W/m

0.00 mm

16:15

14.7 C

994.6 hpa

84 %

14.5 km/h aus 91

22.5 km/h aus S

12.0 C

13.2 C

13.2 C

14.6 C

171 W/m

0.00 mm

16:20

14.9 C

994.6 hpa

83 %

12.9 km/h aus 96

24.1 km/h aus SSE

12.0 C

13.9 C

13.9 C

14.8 C

106 W/m

0.00 mm

16:25

14.7 C

994.6 hpa

82 %

19.3 km/h aus 104

30.6 km/h aus SSE

11.7 C

12.2 C

12.3 C

14.7 C

113 W/m

0.00 mm

16:30

14.7 C

994.5 hpa

82 %

17.7 km/h aus 104

24.1 km/h aus SSE

11.6 C

12.4 C

12.5 C

14.6 C

140 W/m

0.00 mm

16:35

14.7 C

994.5 hpa

83 %

12.9 km/h aus 116

27.4 km/h aus SE

11.8 C

13.6 C

13.7 C

14.6 C

145 W/m

0.00 mm

16:40

14.7 C

994.5 hpa

82 %

14.5 km/h aus 107

25.7 km/h aus SSE

11.6 C

13.2 C

13.2 C

14.6 C

134 W/m

0.00 mm

16:45

14.6 C

994.5 hpa

83 %

14.5 km/h aus 100

30.6 km/h aus SSE

11.8 C

13.1 C

13.2 C

14.6 C

150 W/m

0.00 mm

16:50

14.8 C

994.5 hpa

83 %

11.3 km/h aus 107

24.1 km/h aus SSE

11.9 C

14.1 C

14.2 C

14.7 C

169 W/m

0.00 mm

16:55

15.0 C

994.5 hpa

83 %

12.9 km/h aus 106

24.1 km/h aus SSE

12.1 C

14.0 C

14.1 C

14.9 C

253 W/m

0.00 mm

17:00

14.9 C

994.5 hpa

82 %

9.7 km/h aus 105

20.9 km/h aus SE

11.8 C

14.5 C

14.6 C

14.8 C

145 W/m

0.00 mm

17:05

14.8 C

994.5 hpa

82 %

9.7 km/h aus 108

22.5 km/h aus SSE

11.7 C

14.3 C

14.4 C

14.7 C

124 W/m

0.00 mm

17:10

14.8 C

994.5 hpa

83 %

9.7 km/h aus 105

17.7 km/h aus SSE

11.9 C

14.3 C

14.4 C

14.7 C

132 W/m

0.00 mm

17:15

14.8 C

994.3 hpa

83 %

9.7 km/h aus 107

20.9 km/h aus SSE

11.9 C

14.3 C

14.4 C

14.7 C

85 W/m

0.00 mm

17:20

14.7 C

994.3 hpa

83 %

11.3 km/h aus 107

20.9 km/h aus SSE

11.8 C

14.0 C

14.1 C

14.6 C

89 W/m

0.00 mm

17:25

14.7 C

994.3 hpa

83 %

14.5 km/h aus 107

25.7 km/h aus SE

11.9 C

13.2 C

13.3 C

14.7 C

141 W/m

0.00 mm

17:30

14.8 C

994.3 hpa

83 %

14.5 km/h aus 111

22.5 km/h aus SSE

12.0 C

13.3 C

13.4 C

14.8 C

149 W/m

0.00 mm

17:35

15.1 C

994.3 hpa

80 %

16.1 km/h aus 109

25.7 km/h aus SSE

11.6 C

13.2 C

13.3 C

14.9 C

166 W/m

0.00 mm

17:40

15.1 C

994.3 hpa

78 %

20.9 km/h aus 108

35.4 km/h aus SSE

11.3 C

12.2 C

12.4 C

14.9 C

145 W/m

0.00 mm

17:45

15.1 C

994.3 hpa

78 %

25.7 km/h aus 103

37.0 km/h aus S

11.2 C

11.6 C

11.8 C

14.9 C

117 W/m

0.00 mm

17:50

14.9 C

994.3 hpa

78 %

25.7 km/h aus 105

40.2 km/h aus S

11.1 C

11.5 C

11.7 C

14.8 C

69 W/m

0.00 mm

17:55

14.9 C

994.3 hpa

77 %

12.9 km/h aus 110

24.1 km/h aus S

10.9 C

13.8 C

14.0 C

14.7 C

51 W/m

0.00 mm

18:00

14.8 C

994.3 hpa

77 %

14.5 km/h aus 114

29.0 km/h aus S

10.8 C

13.2 C

13.4 C

14.6 C

44 W/m

0.00 mm

18:05

14.7 C

994.3 hpa

77 %

20.9 km/h aus 112

32.2 km/h aus SSE

10.7 C

11.7 C

11.9 C

14.4 C

44 W/m

0.00 mm

18:10

14.6 C

994.3 hpa

77 %

16.1 km/h aus 114

29.0 km/h aus SSW

10.6 C

12.4 C

12.7 C

14.3 C

32 W/m

0.00 mm

18:15

14.4 C

994.6 hpa

77 %

14.5 km/h aus 115

32.2 km/h aus SSW

10.5 C

12.7 C

12.9 C

14.2 C

23 W/m

0.00 mm

18:20

14.3 C

994.6 hpa

77 %

12.9 km/h aus 113

27.4 km/h aus S

10.4 C

13.1 C

13.3 C

14.1 C

20 W/m

0.00 mm

18:25

14.3 C

994.6 hpa

78 %

11.3 km/h aus 117

20.9 km/h aus S

10.5 C

13.4 C

13.6 C

14.1 C

16 W/m

0.00 mm

18:30

14.2 C

994.7 hpa

78 %

9.7 km/h aus 116

17.7 km/h aus SSE

10.4 C

13.5 C

13.7 C

14.0 C

11 W/m

0.00 mm

18:35

14.1 C

994.7 hpa

79 %

12.9 km/h aus 117

29.0 km/h aus S

10.5 C

12.8 C

13.0 C

13.9 C

4 W/m

0.00 mm

18:40

14.1 C

994.7 hpa

79 %

9.7 km/h aus 116

27.4 km/h aus SSW

10.5 C

13.4 C

13.6 C

13.9 C

0 W/m

0.00 mm

18:45

14.1 C

995.1 hpa

80 %

12.9 km/h aus 113

25.7 km/h aus SSW

10.7 C

12.8 C

13.0 C

13.9 C

0 W/m

0.25 mm

18:50

14.1 C

995.1 hpa

81 %

9.7 km/h aus 117

22.5 km/h aus W

10.8 C

13.4 C

13.6 C

13.9 C

0 W/m

0.76 mm

18:55

13.9 C

995.1 hpa

82 %

9.7 km/h aus 117

20.9 km/h aus SSW

10.9 C

13.2 C

13.3 C

13.8 C

0 W/m

0.25 mm

19:00

13.7 C

995.1 hpa

83 %

6.4 km/h aus 117

16.1 km/h aus WSW

10.9 C

13.6 C

13.7 C

13.6 C

0 W/m

0.00 mm

19:05

13.6 C

995.1 hpa

83 %

6.4 km/h aus 115

17.7 km/h aus SSW

10.7 C

13.4 C

13.5 C

13.4 C

0 W/m

0.00 mm

19:10

13.3 C

995.1 hpa

83 %

8.0 km/h aus 115

19.3 km/h aus SW

10.5 C

12.8 C

12.9 C

13.2 C

0 W/m

0.00 mm

19:15

12.9 C

995.1 hpa

82 %

6.4 km/h aus 116

19.3 km/h aus S

9.9 C

12.7 C

12.8 C

12.8 C

0 W/m

0.00 mm

19:20

12.7 C

995.1 hpa

82 %

8.0 km/h aus 116

20.9 km/h aus S

9.7 C

12.1 C

12.2 C

12.6 C

0 W/m

0.00 mm

19:25

12.6 C

995.1 hpa

82 %

3.2 km/h aus 116

12.9 km/h aus S

9.6 C

12.4 C

12.6 C

12.4 C

0 W/m

0.00 mm

19:30

12.4 C

995.3 hpa

83 %

8.0 km/h aus 117

19.3 km/h aus SW

9.6 C

11.8 C

11.9 C

12.3 C

0 W/m

0.00 mm

19:35

12.3 C

995.3 hpa

83 %

8.0 km/h aus 115

17.7 km/h aus S

9.5 C

11.6 C

11.7 C

12.2 C

0 W/m

0.00 mm

19:40

12.3 C

995.3 hpa

84 %

6.4 km/h aus 115

17.7 km/h aus S

9.7 C

11.9 C

12.0 C

12.2 C

0 W/m

0.00 mm

19:45

12.2 C

995.6 hpa

84 %

6.4 km/h aus 117

16.1 km/h aus S

9.5 C

11.8 C

11.9 C

12.1 C

0 W/m

0.00 mm

19:50

12.1 C

995.6 hpa

84 %

4.8 km/h aus 117

14.5 km/h aus S

9.4 C

12.0 C

12.1 C

12.0 C

0 W/m

0.00 mm

19:55

12.0 C

995.6 hpa

85 %

4.8 km/h aus 117

14.5 km/h aus S

9.6 C

11.9 C

12.0 C

11.9 C

0 W/m

0.00 mm

20:00

11.9 C

995.5 hpa

85 %

12.9 km/h aus 115

24.1 km/h aus S

9.4 C

10.3 C

10.3 C

11.8 C

0 W/m

0.00 mm

20:05

11.8 C

995.5 hpa

85 %

14.5 km/h aus 115

27.4 km/h aus SSE

9.3 C

9.7 C

9.8 C

11.7 C

0 W/m

0.00 mm

20:10

11.7 C

995.5 hpa

85 %

11.3 km/h aus 116

24.1 km/h aus SSW

9.3 C

10.4 C

10.5 C

11.7 C

0 W/m

0.00 mm

20:15

11.7 C

995.6 hpa

85 %

8.0 km/h aus 116

22.5 km/h aus SSW

9.2 C

10.9 C

10.9 C

11.6 C

0 W/m

0.25 mm

20:20

11.7 C

995.6 hpa

85 %

6.4 km/h aus 117

16.1 km/h aus S

9.2 C

11.2 C

11.3 C

11.6 C

0 W/m

0.25 mm

20:25

11.6 C

995.6 hpa

86 %

3.2 km/h aus 116

11.3 km/h aus S

9.3 C

11.6 C

11.6 C

11.6 C

0 W/m

0.00 mm

20:30

11.6 C

995.7 hpa

86 %

3.2 km/h aus 114

8.0 km/h aus S

9.3 C

11.6 C

11.6 C

11.6 C

0 W/m

0.00 mm

20:35

11.6 C

995.7 hpa

86 %

4.8 km/h aus 117

16.1 km/h aus S

9.3 C

11.6 C

11.6 C

11.6 C

0 W/m

0.00 mm

20:40

11.5 C

995.7 hpa

86 %

3.2 km/h aus 117

8.0 km/h aus S

9.2 C

11.5 C

11.5 C

11.5 C

0 W/m

0.00 mm

20:45

11.4 C

995.9 hpa

86 %

4.8 km/h aus 117

8.0 km/h aus SSW

9.2 C

11.4 C

11.4 C

11.4 C

0 W/m

0.00 mm

20:50

11.4 C

995.9 hpa

87 %

3.2 km/h aus 117

8.0 km/h aus SSW

9.3 C

11.4 C

11.4 C

11.4 C

0 W/m

0.00 mm

20:55

11.3 C

995.9 hpa

87 %

1.6 km/h aus 114

4.8 km/h aus SSW

9.2 C

11.3 C

11.3 C

11.3 C

0 W/m

0.00 mm

21:00

11.3 C

996.0 hpa

87 %

3.2 km/h aus 116

9.7 km/h aus SSE

9.2 C

11.3 C

11.3 C

11.3 C

0 W/m

0.00 mm

21:05

11.2 C

996.0 hpa

87 %

3.2 km/h aus 116

9.7 km/h aus SSE

9.1 C

11.3 C

11.2 C

11.3 C

0 W/m

0.00 mm

21:10

11.2 C

996.0 hpa

87 %

3.2 km/h aus 117

11.3 km/h aus S

9.1 C

11.2 C

11.2 C

11.2 C

0 W/m

0.00 mm

21:15

11.2 C

996.2 hpa

88 %

6.4 km/h aus 117

9.7 km/h aus W

9.3 C

10.8 C

10.7 C

11.2 C

0 W/m

0.25 mm

21:20

11.2 C

996.2 hpa

88 %

6.4 km/h aus 115

16.1 km/h aus SSW

9.3 C

10.8 C

10.7 C

11.2 C

0 W/m

1.02 mm

21:25

11.2 C

996.2 hpa

88 %

3.2 km/h aus 115

9.7 km/h aus S

9.3 C

11.2 C

11.2 C

11.2 C

0 W/m

0.00 mm

21:30

11.2 C

996.2 hpa

88 %

3.2 km/h aus 117

11.3 km/h aus S

9.3 C

11.2 C

11.2 C

11.2 C

0 W/m

0.25 mm

21:35

11.2 C

996.2 hpa

89 %

3.2 km/h aus 117

9.7 km/h aus SSE

9.4 C

11.2 C

11.2 C

11.2 C

0 W/m

0.00 mm

21:40

11.2 C

996.2 hpa

89 %

3.2 km/h aus 116

8.0 km/h aus S

9.4 C

11.2 C

11.2 C

11.2 C

0 W/m

0.00 mm

21:45

11.2 C

996.2 hpa

89 %

3.2 km/h aus 115

14.5 km/h aus S

9.4 C

11.2 C

11.2 C

11.2 C

0 W/m

0.25 mm

21:50

11.2 C

996.2 hpa

89 %

3.2 km/h aus 114

9.7 km/h aus SSE

9.5 C

11.3 C

11.2 C

11.3 C

0 W/m

0.00 mm

21:55

11.2 C

996.2 hpa

89 %

3.2 km/h aus 117

9.7 km/h aus S

9.5 C

11.3 C

11.2 C

11.3 C

0 W/m

0.00 mm

22:00

11.2 C

996.2 hpa

90 %

1.6 km/h aus 117

8.0 km/h aus S

9.6 C

11.3 C

11.2 C

11.3 C

0 W/m

0.00 mm

22:05

11.2 C

996.2 hpa

90 %

3.2 km/h aus 117

9.7 km/h aus S

9.6 C

11.3 C

11.2 C

11.3 C

0 W/m

0.00 mm

22:10

11.2 C

996.2 hpa

90 %

4.8 km/h aus 117

11.3 km/h aus SSE

9.6 C

11.2 C

11.1 C

11.3 C

0 W/m

0.00 mm

22:15

11.1 C

996.4 hpa

90 %

3.2 km/h aus 113

8.0 km/h aus SSE

9.5 C

11.2 C

11.1 C

11.2 C

0 W/m

0.00 mm

22:20

11.1 C

996.4 hpa

90 %

4.8 km/h aus 116

11.3 km/h aus S

9.5 C

11.2 C

11.1 C

11.2 C

0 W/m

0.00 mm

22:25

11.1 C

996.4 hpa

90 %

4.8 km/h aus 117

11.3 km/h aus S

9.5 C

11.1 C

11.0 C

11.2 C

0 W/m

0.00 mm

22:30

11.1 C

996.5 hpa

90 %

3.2 km/h aus 117

9.7 km/h aus S

9.5 C

11.2 C

11.1 C

11.2 C

0 W/m

0.00 mm

22:35

11.0 C

996.5 hpa

90 %

4.8 km/h aus 117

16.1 km/h aus SSE

9.4 C

11.1 C

10.9 C

11.1 C

0 W/m

0.00 mm

22:40

11.1 C

996.5 hpa

90 %

4.8 km/h aus 114

11.3 km/h aus S

9.5 C

11.1 C

11.0 C

11.2 C

0 W/m

0.00 mm

22:45

11.1 C

996.6 hpa

91 %

9.7 km/h aus 115

20.9 km/h aus SSW

9.6 C

10.1 C

9.9 C

11.2 C

0 W/m

0.00 mm

22:50

11.2 C

996.6 hpa

91 %

4.8 km/h aus 117

16.1 km/h aus SSW

9.8 C

11.2 C

11.1 C

11.3 C

0 W/m

0.00 mm

22:55

11.2 C

996.6 hpa

91 %

6.4 km/h aus 117

20.9 km/h aus SSW

9.8 C

10.9 C

10.8 C

11.3 C

0 W/m

0.00 mm

23:00

11.2 C

996.7 hpa

91 %

8.0 km/h aus 116

24.1 km/h aus S

9.8 C

10.6 C

10.4 C

11.3 C

0 W/m

0.00 mm

23:05

11.3 C

996.7 hpa

91 %

6.4 km/h aus 114

19.3 km/h aus SW

9.9 C

10.9 C

10.8 C

11.4 C

0 W/m

0.00 mm

23:10

11.3 C

996.7 hpa

91 %

6.4 km/h aus 114

19.3 km/h aus SSW

9.9 C

10.9 C

10.8 C

11.4 C

0 W/m

0.00 mm

23:15

11.2 C

996.7 hpa

91 %

4.8 km/h aus 116

16.1 km/h aus SSW

9.8 C

11.3 C

11.2 C

11.3 C

0 W/m

0.00 mm

23:20

11.2 C

996.7 hpa

91 %

9.7 km/h aus 117

29.0 km/h aus SSW

9.8 C

10.2 C

10.1 C

11.3 C

0 W/m

0.00 mm

23:25

11.2 C

996.7 hpa

90 %

4.8 km/h aus 117

9.7 km/h aus S

9.6 C

11.2 C

11.1 C

11.3 C

0 W/m

0.00 mm

23:30

11.1 C

996.8 hpa

90 %

4.8 km/h aus 115

16.1 km/h aus S

9.5 C

11.2 C

11.1 C

11.2 C

0 W/m

0.00 mm

23:35

11.1 C

996.8 hpa

90 %

3.2 km/h aus 115

16.1 km/h aus SSW

9.5 C

11.2 C

11.1 C

11.2 C

0 W/m

0.00 mm

23:40

11.1 C

996.8 hpa

90 %

4.8 km/h aus 115

14.5 km/h aus SSW

9.5 C

11.1 C

11.0 C

11.2 C

0 W/m

0.00 mm

23:45

11.0 C

996.8 hpa

90 %

3.2 km/h aus 117

9.7 km/h aus SSW

9.4 C

11.1 C

11.0 C

11.1 C

0 W/m

0.00 mm

23:50

11.0 C

996.8 hpa

91 %

6.4 km/h aus 117

17.7 km/h aus SSW

9.6 C

10.7 C

10.6 C

11.1 C

0 W/m

0.00 mm

23:55

11.0 C

996.8 hpa

91 %

6.4 km/h aus 117

14.5 km/h aus SSW

9.6 C

10.7 C

10.6 C

11.1 C

0 W/m

0.00 mm